Location: Mason Neck State Park
(38.6428°N, 77.1981°W)
Time: 07:39:53
(UTC-04:00)

ISS - Visible Passes

Search period start: 21 April 2015 00:00
Search period end: 01 May 2015 00:00
Orbit: 395 x 403 km, 51.6° (Epoch: 21 April)

Date Brightness Start Highest point End Pass type
(mag) Time Alt. Az. Time Alt. Az. Time Alt. Az.
21 Apr -2.6 20:16:22 10° NW 20:19:28 42° NNE 20:22:35 10° ESE visible
21 Apr -1.1 21:53:18 10° W 21:55:22 18° SW 21:55:22 18° SW visible
22 Apr -2.2 20:58:39 10° WNW 21:01:42 37° SW 21:03:41 18° SSE visible
24 Apr -0.8 20:47:22 10° W 20:49:31 16° SW 20:51:35 10° S visible
